When you browse on this site, cookies collect data to enhance your experience and personalize the content and advertising you see.
Visit our Privacy Policy to learn more. By continuing to use the site, you agree to this use of cookies and data.

Stündliche Wetter Bolshie Litvinovichi

Heute, 29 September, Dienstag

Zeit Temperatur Niederschläge Wind Luftdruck Luftfeuchtigkeit
00:00 +12°C° 0 mm 2 m/S 753 mmHg 68%
01:00 +11°C° 0 mm 3 m/S 753 mmHg 69%
02:00 +11°C° 0 mm 3 m/S 753 mmHg 69%
03:00 +11°C° 0 mm 3 m/S 753 mmHg 70%
04:00 +11°C° 0 mm 3 m/S 752 mmHg 71%
05:00 +11°C° 0 mm 3 m/S 752 mmHg 71%
06:00 +12°C° 0 mm 3 m/S 752 mmHg 70%
07:00 +12°C° 0 mm 4 m/S 751 mmHg 68%
08:00 +13°C° 0 mm 4 m/S 751 mmHg 66%
09:00 +14°C° 0 mm 4 m/S 751 mmHg 64%
10:00 +17°C° 0 mm 4 m/S 750 mmHg 61%
11:00 +19°C° 0 mm 4 m/S 750 mmHg 58%
12:00 +19°C° 0 mm 5 m/S 750 mmHg 58%
13:00 +20°C° 0 mm 5 m/S 749 mmHg 58%
14:00 +21°C° 0 mm 5 m/S 749 mmHg 57%
15:00 +20°C° 0 mm 5 m/S 749 mmHg 59%
16:00 +19°C° 0 mm 4 m/S 748 mmHg 61%
17:00 +18°C° 0 mm 4 m/S 748 mmHg 62%
18:00 +17°C° 0 mm 4 m/S 748 mmHg 64%
19:00 +15°C° 0 mm 4 m/S 748 mmHg 67%
20:00 +14°C° 0 mm 4 m/S 748 mmHg 69%
21:00 +14°C° 0 mm 4 m/S 748 mmHg 69%
22:00 +13°C° 0 mm 4 m/S 747 mmHg 69%
23:00 +13°C° 0 mm 4 m/S 747 mmHg 69%

Morgen, 30 September, Mittwoch

Zeit Temperatur Niederschläge Wind Luftdruck Luftfeuchtigkeit
00:00 +13°C° 0 mm 4 m/S 747 mmHg 69%
01:00 +13°C° 0 mm 5 m/S 747 mmHg 69%
02:00 +12°C° 0 mm 5 m/S 747 mmHg 69%
03:00 +12°C° 0.2 mm 5 m/S 746 mmHg 70%
04:00 +12°C° 0.2 mm 5 m/S 746 mmHg 72%
05:00 +12°C° 0.2 mm 5 m/S 746 mmHg 74%
06:00 +11°C° 0 mm 6 m/S 746 mmHg 71%
07:00 +13°C° 0 mm 6 m/S 746 mmHg 67%
08:00 +13°C° 0 mm 6 m/S 746 mmHg 64%
09:00 +14°C° 0 mm 6 m/S 746 mmHg 57%
10:00 +16°C° 0 mm 6 m/S 746 mmHg 51%
11:00 +18°C° 0 mm 7 m/S 746 mmHg 45%
12:00 +18°C° 0 mm 7 m/S 745 mmHg 45%
13:00 +18°C° 0 mm 7 m/S 745 mmHg 45%
14:00 +20°C° 0 mm 7 m/S 745 mmHg 45%
15:00 +19°C° 0 mm 6 m/S 745 mmHg 48%
16:00 +17°C° 0 mm 5 m/S 745 mmHg 51%
17:00 +17°C° 0 mm 4 m/S 745 mmHg 54%
18:00 +15°C° 0 mm 4 m/S 745 mmHg 56%
19:00 +14°C° 0 mm 4 m/S 746 mmHg 59%
20:00 +14°C° 0 mm 3 m/S 746 mmHg 61%
21:00 +13°C° 0 mm 4 m/S 746 mmHg 64%
22:00 +13°C° 0 mm 4 m/S 745 mmHg 67%
23:00 +13°C° 0 mm 4 m/S 745 mmHg 71%

übermorgen, 1 Oktober, Donnerstag

Zeit Temperatur Niederschläge Wind Luftdruck Luftfeuchtigkeit
00:00 +13°C° 0 mm 4 m/S 745 mmHg 67%
01:00 +13°C° 0 mm 5 m/S 745 mmHg 63%
02:00 +14°C° 0 mm 5 m/S 745 mmHg 60%
03:00 +14°C° 0 mm 5 m/S 745 mmHg 64%
04:00 +14°C° 0 mm 5 m/S 745 mmHg 68%
05:00 +14°C° 0 mm 6 m/S 745 mmHg 73%
06:00 +14°C° 0 mm 6 m/S 745 mmHg 75%
07:00 +14°C° 0 mm 6 m/S 745 mmHg 77%
08:00 +14°C° 0 mm 6 m/S 745 mmHg 79%
09:00 +15°C° 0 mm 6 m/S 745 mmHg 75%
10:00 +15°C° 0 mm 6 m/S 746 mmHg 72%
11:00 +16°C° 0 mm 6 m/S 746 mmHg 69%
12:00 +17°C° 0 mm 6 m/S 746 mmHg 65%
13:00 +19°C° 0 mm 6 m/S 746 mmHg 60%
14:00 +19°C° 0 mm 6 m/S 747 mmHg 56%
15:00 +17°C° 0 mm 5 m/S 747 mmHg 60%
16:00 +17°C° 0 mm 5 m/S 747 mmHg 64%
17:00 +16°C° 0 mm 5 m/S 747 mmHg 68%
18:00 +15°C° 0 mm 4 m/S 747 mmHg 68%
19:00 +14°C° 0 mm 4 m/S 747 mmHg 68%
20:00 +13°C° 0 mm 4 m/S 747 mmHg 67%
21:00 +13°C° 0 mm 4 m/S 747 mmHg 69%
22:00 +13°C° 0 mm 4 m/S 747 mmHg 71%
23:00 +13°C° 0 mm 4 m/S 747 mmHg 72%

2 Oktober, Freitag

Zeit Temperatur Niederschläge Wind Luftdruck Luftfeuchtigkeit
00:00 +12°C° 0 mm 4 m/S 747 mmHg 74%
01:00 +12°C° 0 mm 4 m/S 747 mmHg 75%
02:00 +12°C° 0 mm 4 m/S 747 mmHg 77%
03:00 +12°C° 0.1 mm 4 m/S 747 mmHg 77%
04:00 +12°C° 0.1 mm 4 m/S 747 mmHg 77%
05:00 +12°C° 0.1 mm 5 m/S 747 mmHg 77%
06:00 +12°C° 0.2 mm 5 m/S 747 mmHg 74%
07:00 +13°C° 0.2 mm 5 m/S 747 mmHg 71%
08:00 +13°C° 0.2 mm 5 m/S 747 mmHg 69%
09:00 +14°C° 0 mm 5 m/S 747 mmHg 66%
10:00 +15°C° 0 mm 5 m/S 747 mmHg 64%
11:00 +17°C° 0 mm 6 m/S 748 mmHg 61%
12:00 +17°C° 0 mm 6 m/S 748 mmHg 60%
13:00 +19°C° 0 mm 5 m/S 748 mmHg 58%
14:00 +19°C° 0 mm 5 m/S 748 mmHg 56%
15:00 +17°C° 0 mm 5 m/S 748 mmHg 59%
16:00 +18°C° 0 mm 4 m/S 748 mmHg 61%
17:00 +17°C° 0 mm 4 m/S 748 mmHg 63%
18:00 +15°C° 0 mm 4 m/S 748 mmHg 66%
19:00 +14°C° 0 mm 4 m/S 749 mmHg 68%
20:00 +13°C° 0 mm 4 m/S 749 mmHg 70%
21:00 +13°C° 0 mm 3 m/S 749 mmHg 73%
22:00 +12°C° 0 mm 3 m/S 749 mmHg 76%
23:00 +12°C° 0 mm 3 m/S 749 mmHg 79%

3 Oktober, Samstag

Zeit Temperatur Niederschläge Wind Luftdruck Luftfeuchtigkeit
00:00 +12°C° 0 mm 3 m/S 749 mmHg 80%
01:00 +11°C° 0 mm 3 m/S 749 mmHg 80%
02:00 +12°C° 0 mm 2 m/S 749 mmHg 80%
03:00 +12°C° 0 mm 2 m/S 749 mmHg 81%
04:00 +12°C° 0 mm 2 m/S 749 mmHg 81%
05:00 +12°C° 0 mm 2 m/S 749 mmHg 82%
06:00 +12°C° 0 mm 2 m/S 749 mmHg 81%
07:00 +13°C° 0 mm 2 m/S 749 mmHg 80%
08:00 +13°C° 0 mm 2 m/S 749 mmHg 79%
09:00 +14°C° 0 mm 2 m/S 749 mmHg 75%
10:00 +15°C° 0 mm 2 m/S 749 mmHg 71%
11:00 +17°C° 0 mm 2 m/S 749 mmHg 67%
12:00 +17°C° 0 mm 2 m/S 749 mmHg 66%
13:00 +18°C° 0 mm 2 m/S 749 mmHg 64%
14:00 +18°C° 0 mm 2 m/S 749 mmHg 63%
15:00 +18°C° 0.1 mm 2 m/S 749 mmHg 67%
16:00 +17°C° 0.1 mm 2 m/S 749 mmHg 72%
17:00 +16°C° 0.1 mm 2 m/S 749 mmHg 76%
18:00 +15°C° 0 mm 2 m/S 749 mmHg 81%
19:00 +14°C° 0 mm 2 m/S 749 mmHg 86%
20:00 +13°C° 0 mm 2 m/S 749 mmHg 90%
21:00 +13°C° 0 mm 2 m/S 749 mmHg 91%
22:00 +14°C° 0 mm 2 m/S 749 mmHg 91%
23:00 +14°C° 0 mm 2 m/S 749 mmHg 91%

4 Oktober, Sonntag

Zeit Temperatur Niederschläge Wind Luftdruck Luftfeuchtigkeit
00:00 +14°C° 0.3 mm 2 m/S 749 mmHg 92%
01:00 +14°C° 0.3 mm 2 m/S 749 mmHg 92%
02:00 +14°C° 0.3 mm 2 m/S 749 mmHg 93%
03:00 +13°C° 0.2 mm 3 m/S 749 mmHg 93%
04:00 +13°C° 0.2 mm 3 m/S 749 mmHg 93%
05:00 +13°C° 0.2 mm 4 m/S 749 mmHg 93%
06:00 +13°C° 0.3 mm 4 m/S 749 mmHg 92%
07:00 +13°C° 0.3 mm 5 m/S 749 mmHg 91%
08:00 +14°C° 0.3 mm 5 m/S 749 mmHg 90%
09:00 +14°C° 0 mm 5 m/S 749 mmHg 89%
10:00 +14°C° 0 mm 5 m/S 749 mmHg 87%
11:00 +14°C° 0 mm 5 m/S 749 mmHg 86%
12:00 +15°C° 0 mm 5 m/S 749 mmHg 85%
13:00 +15°C° 0 mm 5 m/S 749 mmHg 85%
14:00 +15°C° 0 mm 5 m/S 749 mmHg 84%
15:00 +15°C° 0.1 mm 5 m/S 749 mmHg 85%
16:00 +15°C° 0.1 mm 5 m/S 749 mmHg 87%
17:00 +15°C° 0.1 mm 5 m/S 749 mmHg 88%
18:00 +15°C° 0.1 mm 5 m/S 749 mmHg 89%
19:00 +15°C° 0.1 mm 5 m/S 749 mmHg 90%
20:00 +15°C° 0.1 mm 5 m/S 749 mmHg 91%
21:00 +15°C° 0 mm 6 m/S 749 mmHg 91%
22:00 +15°C° 0 mm 6 m/S 749 mmHg 91%
23:00 +14°C° 0 mm 6 m/S 749 mmHg 91%
Mehr zeigen